[[{"header":{"parameterUnit":"m.s-1","parameterCategory":1,"la1":30.2991,"la2":30.254,"lo1":-89.0895,"lo2":-89.0444,"dy":0.0017,"dx":0.0017,"nx":28,"ny":28,"refTime":"2025-03-31T09:00:00:Z","depth":0,"parameterNumber":2,"parameterNumberName":"U-component_of_WINDS"},"data":[0,0,0,0,0,0,0,0,0,0,0,0,0,0,0,0,0,0,0,0,0,0,0,0,0,0,0,0,0,0,0,0,0,0,0,0,0,0,0,0,0,0,0,0,0,0,0,0,0,0,0,0,0,0,0,0,0,0,-3.6695,-3.6698,0,-3.6938,-3.6941,-3.6944,-3.7023,-3.7022,-3.7021,-3.702,-3.7274,-3.7282,-3.7289,0,0,0,0,0,0,0,0,0,0,0,0,0,-3.6308,-3.6314,-3.6695,-3.6698,-3.6701,-3.6938,-3.6941,-3.6944,-3.7023,-3.7022,-3.7021,-3.7019,-3.7272,-3.7281,-3.729,0,0,0,0,0,0,0,0,0,0,0,0,0,-3.6506,-3.6316,-3.6695,-3.6769,-3.6778,-3.6937,-3.6941,-3.6945,-3.7023,-3.7022,-3.702,-3.7019,-3.7269,-3.728,-3.7291,-3.7396,0,0,-3.7327,-3.7332,0,0,0,0,0,0,0,0,-3.6494,-3.652,-3.6755,-3.6764,-3.6774,-3.6948,-3.6898,-3.7097,-3.7024,-3.693,-3.702,-3.7018,-3.7168,-3.7187,-3.7237,-3.7408,-3.7419,-3.7328,-3.7335,-3.734,-3.7344,0,0,0,0,0,0,0,-3.6481,-3.651,-3.6791,-3.6758,-3.677,-3.6793,-3.6819,-3.6936,-3.7055,-3.6938,-3.6945,-3.6972,-3.7173,-3.7225,-3.7243,-3.7423,-3.7328,-3.7338,-3.7345,-3.735,-3.7695,-3.7697,0,0,0,0,0,0,-3.6453,-3.6498,-3.6784,-3.6799,-3.6627,-3.6801,-3.683,-3.6894,-3.7054,-3.7077,-3.6973,-3.6975,-3.7206,-3.723,-3.7253,-3.7387,-3.734,-3.7351,-3.7358,-3.7693,-3.7696,-3.7698,0,0,0,0,0,0,-3.6445,-3.6478,-3.6774,-3.665,-3.669,-3.6809,-3.6881,-3.69,-3.6953,-3.708,-3.7103,-3.7004,-3.7206,-3.7236,-3.736,-3.7397,-3.7356,-3.7367,-3.769,-3.7694,-3.7697,-3.7654,0,0,0,0,0,0,-3.6433,-3.6474,-3.6513,-3.665,-3.6696,-3.6875,-3.6883,-3.6906,-3.6972,-3.6976,-3.7116,-3.7137,-3.7207,-3.7342,-3.7372,-3.7412,-3.7376,-3.7688,-3.7692,-3.7696,-3.7653,-3.7656,-3.7658,0,0,0,0,0,-3.6419,-3.6492,-3.6515,-3.6549,-3.6746,-3.6876,-3.6903,-3.698,-3.6974,-3.7016,-3.7099,-3.7133,-3.7388,-3.7354,-3.7388,-3.7432,-3.7686,-3.7691,-3.7695,-3.7652,-3.7655,-3.7658,0,0,0,0,0,0,-3.6358,-3.6512,-3.6538,-3.6657,-3.6753,-3.6889,-3.6944,-3.698,-3.7081,-3.7081,-3.7174,-3.7205,-3.7322,-3.739,-3.735,-3.7544,-3.7539,-3.7551,-3.7494,-3.7499,-3.7501,-3.7482,-3.7386,0,0,0,0,0,-3.6358,-3.6448,-3.6579,-3.6672,-3.6719,-3.6823,-3.6882,-3.6933,-3.7037,-3.7078,-3.717,-3.7271,-3.7375,-3.7441,-3.7543,-3.7664,-3.7697,-3.7712,-3.7714,-3.7716,-3.7725,-3.7796,-3.7805,-3.7714,-3.7714,-3.7714,0,0,-3.636,-3.6455,-3.6506,-3.6662,-3.6742,-3.6836,-3.6856,-3.6954,-3.7026,-3.7094,-3.7216,-3.7287,-3.7407,-3.753,-3.7589,-3.759,-3.7757,-3.7722,-3.7722,-3.7731,-3.7802,-3.781,-3.7818,-3.7717,-3.7717,-3.7716,0,0,-3.641,-3.6491,-3.6577,-3.6658,-3.6778,-3.6848,-3.6869,-3.7001,-3.705,-3.7174,-3.7227,-3.7316,-3.7491,-3.7574,-3.7639,-3.7725,-3.7761,-3.7756,-3.7769,-3.7838,-3.7845,-3.7852,-3.7883,-3.7893,-3.7765,-3.7765,-3.7765,0,-3.6397,-3.6539,-3.6618,-3.6714,-3.6782,-3.6847,-3.6937,-3.7012,-3.7161,-3.7207,-3.7206,-3.7429,-3.7514,-3.7659,-3.768,-3.7731,-3.7759,-3.774,-3.7837,-3.7845,-3.7852,-3.7883,-3.7895,-3.7763,-3.7764,-3.7764,-3.7764,0,-3.6518,-3.6615,-3.6671,-3.6811,-3.6886,-3.6979,-3.7075,-3.7142,-3.7187,-3.7258,-3.7385,-3.7489,-3.7614,-3.7653,-3.7699,-3.7806,-3.7803,-3.7818,-3.7815,-3.7858,-3.7889,-3.7901,-3.7761,-3.7762,-3.7762,-3.7763,0,0,-3.6534,-3.6718,-3.6738,-3.6803,-3.6942,-3.7021,-3.7118,-3.7239,-3.7295,-3.7397,-3.7482,-3.763,-3.7646,-3.772,-3.7777,-3.7837,-3.79,-3.7846,-3.785,-3.7852,-3.8026,-3.8012,-3.8024,-3.7925,-3.7928,-3.793,-3.8016,0,-3.6603,-3.6776,-3.6852,-3.6992,-3.7084,-3.7149,-3.7234,-3.7331,-3.74,-3.7491,-3.7569,-3.7672,-3.7685,-3.7731,-3.7793,-3.7878,-3.7936,-3.7873,-3.8007,-3.8011,-3.7974,-3.8041,-3.8027,-3.8102,-3.8028,-3.803,-3.8032,0,-3.6705,-3.6805,-3.6954,-3.7084,-3.7126,-3.72,-3.7318,-3.7404,-3.7516,-3.7563,-3.7646,-3.7701,-3.7808,-3.7799,-3.795,-3.7906,-3.7966,-3.8017,-3.8022,-3.8037,-3.8023,-3.8057,-3.8128,-3.8139,-3.8051,-3.805,-3.8048,0,-3.6703,-3.6876,-3.6987,-3.7041,-3.7195,-3.7246,-3.7314,-3.7424,-3.7493,-3.7597,-3.7643,-3.776,-3.7823,-3.7914,-3.7999,-3.7984,-3.8143,-3.814,-3.8186,-3.8184,-3.8216,-3.8212,-3.8297,-3.8255,-3.8255,-3.8254,-3.8254,0,-3.6771,-3.686,-3.6988,-3.7056,-3.7159,-3.7247,-3.7347,-3.7419,-3.7517,-3.7603,-3.7668,-3.7748,-3.7856,-3.795,-3.8019,-3.8134,-3.8163,-3.8205,-3.8222,-3.8199,-3.8194,-3.8239,-3.8236,-3.8258,-3.8257,-3.8256,-3.8256,0,-3.6785,-3.6874,-3.7,-3.7136,-3.7173,-3.7242,-3.736,-3.7431,-3.7504,-3.7612,-3.7643,-3.7759,-3.7874,-3.7968,-3.812,-3.8166,-3.8287,-3.8306,-3.8248,-3.8257,-3.8297,-3.8292,-3.8414,-3.8435,-3.8377,-3.8378,-3.8378,0,-3.6823,-3.6892,-3.7035,-3.7096,-3.7162,-3.726,-3.7331,-3.7422,-3.7493,-3.7627,-3.7682,-3.7801,-3.7901,-3.8083,-3.8182,-3.8299,-3.8322,-3.8357,-3.834,-3.8315,-3.8323,-3.8318,-3.8326,-3.8358,-3.8358,-3.8358,-3.8358,0,-3.688,-3.6921,-3.7018,-3.7132,-3.7213,-3.7308,-3.7404,-3.7451,-3.7561,-3.7638,-3.7755,-3.7833,-3.7987,-3.8106,-3.8234,-3.8307,-3.8352,-3.8363,-3.838,-3.8357,-3.832,-3.8341,-3.8252,-3.8359,-3.8359,-3.8359,-3.8359,-3.8359,-3.6907,-3.6972,-3.7084,-3.7191,-3.7273,-3.7362,-3.7435,-3.7517,-3.7616,-3.7747,-3.7796,-3.7917,-3.8031,-3.8207,-3.828,-3.8378,-3.8383,-3.8408,-3.8414,-3.8418,-3.8415,-3.8305,-3.8402,-3.8402,-3.8402,-3.8402,-3.8403,0,-3.6968,-3.7043,-3.7141,-3.7273,-3.7358,-3.7391,-3.7501,-3.757,-3.7675,-3.7776,-3.7873,-3.801,-3.8126,-3.8235,-3.8357,-3.8415,-3.8439,-3.8444,-3.844,-3.8457,-3.8404,-3.8377,-3.8422,-3.8422,-3.8422,-3.8422,-3.8422,-3.8422,-3.701,-3.7122,-3.7177,-3.7332,-3.7408,-3.7524,-3.7584,-3.7668,-3.7749,-3.7898,-3.7994,-3.8063,-3.8169,-3.83,-3.8409,-3.8439,-3.8481,-3.848,-3.8515,-3.8463,-3.846,-3.8457,-3.8432,-3.8489,-3.8489,-3.8561,-3.8561,-3.8562]},{"header":{"parameterUnit":"m.s-1","parameterCategory":1,"la1":30.2991,"la2":30.254,"lo1":-89.0895,"lo2":-89.0444,"dy":0.0017,"dx":0.0017,"nx":28,"ny":28,"refTime":"2025-03-31T09:00:00:Z","depth":0,"parameterNumber":3,"parameterNumberName":"V-component_of_WINDS"},"data":[0,0,0,0,0,0,0,0,0,0,0,0,0,0,0,0,0,0,0,0,0,0,0,0,0,0,0,0,0,0,0,0,0,0,0,0,0,0,0,0,0,0,0,0,0,0,0,0,0,0,0,0,0,0,0,0,0,0,5.5658,5.5659,0,5.5695,5.5695,5.5696,5.5671,5.567,5.5668,5.5667,5.5707,5.5709,5.5711,0,0,0,0,0,0,0,0,0,0,0,0,0,5.5568,5.557,5.5658,5.5659,5.5659,5.5695,5.5695,5.5696,5.5671,5.5669,5.5668,5.5667,5.5706,5.5708,5.5711,0,0,0,0,0,0,0,0,0,0,0,0,0,5.5606,5.557,5.5658,5.5651,5.565,5.5695,5.5695,5.5696,5.5671,5.5669,5.5668,5.5666,5.5705,5.5708,5.5711,5.5765,0,0,5.5721,5.5722,0,0,0,0,0,0,0,0,5.5604,5.561,5.5651,5.5651,5.5651,5.5676,5.5678,5.5719,5.5672,5.5663,5.5667,5.5665,5.5698,5.5702,5.5712,5.5767,5.5769,5.5721,5.5723,5.5725,5.5725,0,0,0,0,0,0,0,5.5602,5.5608,5.5673,5.5652,5.5652,5.5646,5.565,5.5686,5.569,5.5664,5.5662,5.5667,5.5698,5.5709,5.5713,5.5769,5.5721,5.5724,5.5726,5.5727,5.5872,5.5874,0,0,0,0,0,0,5.5599,5.5606,5.5672,5.5674,5.5623,5.5649,5.5653,5.567,5.5689,5.5691,5.5668,5.5666,5.5705,5.571,5.5714,5.578,5.5725,5.5728,5.5729,5.587,5.5873,5.5875,0,0,0,0,0,0,5.5598,5.5605,5.567,5.5639,5.5647,5.5653,5.5672,5.5672,5.5683,5.5693,5.5694,5.5679,5.5704,5.571,5.5753,5.5781,5.5729,5.5732,5.5868,5.5871,5.5874,5.5911,0,0,0,0,0,0,5.5595,5.5605,5.5625,5.564,5.5649,5.5707,5.5673,5.5674,5.5689,5.5686,5.5703,5.5705,5.5703,5.5749,5.5756,5.5784,5.5734,5.5866,5.5869,5.5873,5.5907,5.5915,5.5921,0,0,0,0,0,5.5592,5.5634,5.5626,5.5634,5.5674,5.5709,5.5714,5.5711,5.5691,5.5712,5.5718,5.5704,5.5777,5.5753,5.5762,5.5791,5.5864,5.5868,5.5873,5.5904,5.5913,5.5921,0,0,0,0,0,0,5.5622,5.5636,5.5627,5.5675,5.5691,5.5705,5.573,5.572,5.5743,5.5739,5.5734,5.5738,5.5784,5.5792,5.5765,5.5846,5.5817,5.5824,5.5839,5.5847,5.5854,5.5851,5.5737,0,0,0,0,0,5.5634,5.5661,5.5671,5.5713,5.5721,5.5725,5.574,5.5736,5.5752,5.5759,5.5769,5.5786,5.5813,5.583,5.5856,5.5909,5.5913,5.5933,5.594,5.5946,5.5952,5.5982,5.5992,5.5889,5.5889,5.5889,0,0,5.5659,5.567,5.5687,5.5719,5.5731,5.576,5.573,5.5762,5.5783,5.5764,5.5805,5.5813,5.5832,5.5881,5.5903,5.5889,5.5981,5.5952,5.5956,5.5959,5.5988,5.5997,5.6006,5.5892,5.5892,5.5891,0,0,5.572,5.573,5.5767,5.5779,5.5798,5.58,5.5809,5.5825,5.5829,5.587,5.5857,5.5883,5.5929,5.5944,5.5957,5.6026,5.6015,5.6034,5.6071,5.6101,5.6109,5.6116,5.6141,5.615,5.604,5.604,5.604,0,5.5749,5.5791,5.5787,5.5819,5.5834,5.5818,5.5856,5.5869,5.5895,5.5906,5.589,5.5948,5.596,5.6013,5.603,5.6041,5.6052,5.6032,5.6108,5.6115,5.6121,5.6146,5.6155,5.6042,5.6042,5.6042,5.6042,0,5.5827,5.5856,5.5884,5.5909,5.5927,5.5962,5.5964,5.5983,5.5978,5.5982,5.6026,5.6039,5.6068,5.608,5.6075,5.6133,5.6124,5.6108,5.608,5.6134,5.6156,5.6166,5.6046,5.6045,5.6044,5.6044,0,0,5.5907,5.593,5.594,5.5952,5.5972,5.5996,5.6031,5.6058,5.6075,5.6094,5.6124,5.6164,5.615,5.6166,5.6163,5.6189,5.6244,5.617,5.617,5.6184,5.631,5.6322,5.6333,5.6237,5.6238,5.624,5.6308,0,5.5969,5.6029,5.6027,5.6084,5.6112,5.6098,5.6128,5.6145,5.615,5.6176,5.6182,5.6211,5.6189,5.6199,5.6224,5.6232,5.6269,5.6227,5.6266,5.6267,5.6261,5.6344,5.6357,5.6421,5.6317,5.6319,5.632,0,5.605,5.6072,5.6132,5.6149,5.616,5.6188,5.6214,5.6238,5.6257,5.6259,5.6277,5.627,5.6307,5.6278,5.633,5.6301,5.6317,5.6324,5.6326,5.633,5.6297,5.6351,5.6441,5.6451,5.6334,5.6332,5.6331,0,5.6104,5.6148,5.619,5.62,5.6221,5.6241,5.6251,5.6268,5.6285,5.6308,5.632,5.6347,5.6362,5.6384,5.6385,5.6364,5.6438,5.6409,5.6442,5.6442,5.6458,5.6457,5.6553,5.6468,5.6468,5.6467,5.6467,0,5.6175,5.6212,5.6214,5.624,5.6282,5.6279,5.6321,5.6329,5.6345,5.6372,5.6362,5.6389,5.6389,5.6417,5.6418,5.6462,5.6468,5.6472,5.6472,5.6473,5.6473,5.6484,5.648,5.647,5.6469,5.6469,5.6469,0,5.6241,5.6244,5.6289,5.6305,5.631,5.6341,5.6355,5.638,5.6385,5.6421,5.6429,5.6437,5.6469,5.6473,5.651,5.6512,5.6564,5.6559,5.6558,5.6557,5.6591,5.6588,5.6697,5.6712,5.6617,5.6617,5.6618,0,5.6286,5.6315,5.6334,5.6352,5.6363,5.6391,5.6409,5.6408,5.6427,5.6452,5.6474,5.6505,5.653,5.6583,5.6593,5.6622,5.6618,5.6654,5.6622,5.6623,5.662,5.6618,5.6622,5.6661,5.6662,5.6663,5.6663,0,5.6367,5.6367,5.6392,5.6419,5.644,5.6461,5.6481,5.6496,5.6498,5.652,5.6553,5.6572,5.6611,5.6642,5.6671,5.6683,5.6674,5.6673,5.6683,5.6684,5.6683,5.6685,5.6575,5.6671,5.667,5.6669,5.6669,5.6669,5.6425,5.645,5.6468,5.6497,5.6511,5.653,5.6555,5.6563,5.659,5.6621,5.6619,5.6655,5.6675,5.6714,5.6727,5.6757,5.6745,5.6758,5.6762,5.6765,5.6769,5.6678,5.6762,5.6762,5.6761,5.6761,5.6761,0,5.6505,5.6516,5.6543,5.6571,5.6594,5.6583,5.6605,5.6625,5.6657,5.6676,5.6701,5.6739,5.677,5.6783,5.6814,5.6835,5.6832,5.6843,5.6842,5.6845,5.6777,5.6766,5.6845,5.6845,5.6845,5.6845,5.6845,5.6845,5.655,5.6592,5.6594,5.6644,5.6655,5.669,5.6704,5.6722,5.6737,5.678,5.6806,5.6813,5.6831,5.6863,5.6891,5.6894,5.6907,5.692,5.6922,5.6858,5.685,5.6842,5.6831,5.6923,5.6923,5.6987,5.6988,5.6988]}]]